Location: Unspecified
(0.0000°N, 0.0000°E)
Time: 00:59:22
(UTC+00:00)

RS-15 - Pass Details

Date: 20 February 2026
Orbit: 1894 x 2150 km, 64.8° (Epoch: 7 March)

Event Time Altitude Azimuth Distance (km) Brightness Sun altitude
Rises 22:08:56 0° 197° (SSW) 5,399 10.6 -57.2°
Reaches altitude 10° 22:12:18 10° 194° (SSW) 4,370 10.0 -58.0°
Enters shadow 22:14:14 17° 192° (SSW) 3,793 9.6 -58.5°
